Simultaneous Nadir Overpasses (SNOs) Predictions

Prediction of SNOs between METOP-B and NOAA-19 Satellite Orbit:

Table of predicted SNOs for the next 14.0 days since TLE Epoch: 3/30/2017
Index Date (METOP-B) Time (METOP-B) Lat,Lon (METOP-B) SZA (METOP-B ) Date (NOAA-19) Time (NOAA-19) Lat,Lon (NOAA-19) SZA (NOAA-19 ) Distance(km) Time Diff (sec)
1 03/31/2017 08:22:05 76.98, 58.46 72.65 03/31/2017 08:20:51 77.00, 58.45 72.66 1.66 74
2 03/31/2017 09:12:46 -77.00,-134.12 107.35 03/31/2017 09:11:47 -77.00,-134.29 107.36 4.25 59
3 03/31/2017 10:03:27 76.96, 33.05 72.60 03/31/2017 10:02:52 76.97, 33.07 72.61 0.78 35
4 03/31/2017 10:54:09 -76.94,-159.72 107.44 03/31/2017 10:53:48 -76.97,-159.67 107.41 3.49 21
5 03/31/2017 11:44:49 76.95, 7.63 72.55 03/31/2017 11:44:53 76.94, 7.69 72.55 1.53 4
6 03/31/2017 12:35:31 -76.92, 174.87 107.49 03/31/2017 12:35:49 -76.94, 174.95 107.47 2.98 18
7 03/31/2017 13:26:11 76.93, -17.78 72.51 03/31/2017 13:26:54 76.91, -17.69 72.50 2.81 43
8 03/31/2017 14:16:53 -76.90, 149.46 107.53 03/31/2017 14:17:50 -76.91, 149.57 107.52 3.10 57
9 03/31/2017 15:07:41 76.55, -44.58 72.09 03/31/2017 15:08:48 76.58, -41.82 72.16 71.42 67
10 04/11/2017 01:59:12 -77.37, -24.24 110.99 04/11/2017 01:58:05 -77.38, -27.31 111.02 74.79 67
11 04/11/2017 02:50:00 77.01, 141.57 68.61 04/11/2017 02:48:59 77.01, 141.68 68.61 2.75 61
12 04/11/2017 03:40:42 -77.00, -51.12 111.41 04/11/2017 03:39:58 -77.03, -51.17 111.39 2.88 44
13 04/11/2017 04:31:22 76.99, 116.15 68.57 04/11/2017 04:31:01 77.02, 116.11 68.60 3.63 21
14 04/11/2017 05:22:04 -76.98, -76.54 111.45 04/11/2017 05:21:59 -77.00, -76.55 111.44 1.66 5
15 04/11/2017 06:12:44 76.97, 90.73 68.52 04/11/2017 06:13:02 76.99, 90.72 68.55 2.53 18
16 04/11/2017 07:03:26 -76.97,-101.96 111.50 04/11/2017 07:04:00 -76.97,-101.93 111.49 0.98 34
17 04/11/2017 07:54:06 76.95, 65.32 68.48 04/11/2017 07:55:03 76.97, 65.34 68.50 1.68 57
18 04/11/2017 08:44:48 -76.95,-127.37 111.54 04/11/2017 08:46:01 -76.94,-127.31 111.54 1.68 73




NCC Satellite Simultaneous Nadir Overpasses (SNOs) Prediction Service
